Weather History for KSNA - November, 2013

Change the Weather History Date:

Saturday, November 16, 2013

  Actual Average Record
Temperature  
Mean Temperature 63 °F 62 °F  
Max Temperature 68 °F 71 °F 91 °F (2008)
Min Temperature 58 °F 52 °F 45 °F (2000)
Degree Days  
Heating Degree Days 2 4  
Month to date heating degree days 11 46  
Since 1 July heating degree days 29 73  
Cooling Degree Days 0 1  
Month to date cooling degree days 26 18  
Year to date cooling degree days 1157 872  
Growing Degree Days 14 (Base 50)    
Moisture  
Dew Point 50 °F    
Average Humidity 62    
Maximum Humidity 78    
Minimum Humidity 45    
Precipitation  
Precipitation T in 0.04 in 0.01 in (2003)
Month to date precipitation T 0.74  
Year to date precipitation 2.29 10.74  
Since 1 July precipitation 0.32 1.78  
Snow  
Snow 0.00 in - - ()
Month to date snowfall 0.0  
Year to date snowfall 0.0  
Since 1 July snowfall 0.0  
Snow Depth 0.00 in    
Sea Level Pressure  
Sea Level Pressure 29.83 in    
Wind  
Wind Speed 6 mph (SSE)    
Max Wind Speed 14 mph    
Max Gust Speed 21 mph    
Visibility 10 miles    
Events Rain    
T = Trace of Precipitation, MM = Missing Value Source: NWS Daily Summary

Daily Weather History Graph

Daily Weather History Graph

Search for Another Location

Airport or City:

Trip Planner

Search our weather history database for the weather conditions in past years. The results will help you decide how hot, cold, wet, or windy it might be!

Date:

Astronomy

Nov. 16, 2013 Rise Set
Actual Time 6:24 AM PST 4:47 PM PST
Civil Twilight 5:58 AM PST 5:14 PM PST
Nautical Twilight 5:27 AM PST 5:44 PM PST
Astronomical Twilight 4:58 AM PST 6:13 PM PST
Moon 4:24 PM PST (11/16) 5:27 AM PST (11/16)
Length of Visible Light 11h 16m
Length of Day
10h 23m
Waxing Gibbous, 99% of the Moon is Illuminated
Nov 16
Waxing Gibbous
Nov 17
Full
Nov 25
Last Quarter
Dec 2
New
Dec 9
First Quarter

Hourly Weather History & Observations

Time (PST) Temp. Dew Point Humidity Pressure Visibility Wind Dir Wind Speed Gust Speed Precip Events Conditions
12:08 AM 60.8 °F 53.6 °F 77% 29.76 in 9.0 mi Calm Calm - N/A   Mostly Cloudy
12:35 AM 60.8 °F 53.6 °F 77% 29.76 in 10.0 mi Calm Calm - N/A   Overcast
12:53 AM 61.0 °F 54.0 °F 78% 29.77 in 10.0 mi Calm Calm - N/A   Overcast
1:31 AM 60.8 °F 53.6 °F 77% 29.76 in 10.0 mi Calm Calm - N/A   Overcast
1:53 AM 60.1 °F 54.0 °F 80% 29.76 in 9.0 mi Calm Calm - N/A   Overcast
2:12 AM 60.8 °F 53.6 °F 77% 29.76 in 10.0 mi East 4.6 mph - N/A   Overcast
2:19 AM 60.8 °F 53.6 °F 77% 29.76 in 10.0 mi East 4.6 mph - N/A   Overcast
2:31 AM 60.8 °F 53.6 °F 77% 29.76 in 10.0 mi East 3.5 mph - N/A   Overcast
2:53 AM 61.0 °F 54.0 °F 78% 29.77 in 10.0 mi ESE 4.6 mph - N/A   Overcast
3:40 AM 60.8 °F 53.6 °F 77% 29.78 in 10.0 mi SSW 6.9 mph - N/A   Overcast
3:53 AM 60.1 °F 53.1 °F 78% 29.78 in 10.0 mi SSW 8.1 mph - 0.00 in Rain Light Rain
4:53 AM 60.1 °F 51.1 °F 72% 29.80 in 10.0 mi SSW 3.5 mph - 0.00 in   Overcast
5:53 AM 59.0 °F 51.1 °F 75% 29.81 in 10.0 mi Calm Calm - N/A   Scattered Clouds
6:53 AM 59.0 °F 51.1 °F 75% 29.83 in 10.0 mi SE 5.8 mph - N/A   Mostly Cloudy
7:53 AM 60.1 °F 50.0 °F 69% 29.85 in 10.0 mi SSE 5.8 mph - N/A   Mostly Cloudy
8:53 AM 62.1 °F 48.0 °F 60% 29.88 in 10.0 mi SSE 5.8 mph - N/A   Overcast
9:53 AM 64.9 °F 46.9 °F 52% 29.89 in 10.0 mi SSW 9.2 mph - N/A   Partly Cloudy
10:53 AM 66.0 °F 46.9 °F 50% 29.88 in 10.0 mi SSW 8.1 mph - N/A   Partly Cloudy
11:53 AM 68.0 °F 46.9 °F 47% 29.86 in 9.0 mi SSW 11.5 mph - N/A   Scattered Clouds
12:53 PM 66.9 °F 46.0 °F 47% 29.84 in 10.0 mi SSW 12.7 mph 18.4 mph N/A   Scattered Clouds
1:53 PM 66.9 °F 46.0 °F 47% 29.84 in 10.0 mi SSW 11.5 mph - N/A   Scattered Clouds
2:53 PM 66.0 °F 46.9 °F 50% 29.85 in 10.0 mi SSW 9.2 mph - N/A   Scattered Clouds
3:53 PM 64.0 °F 46.9 °F 54% 29.85 in 10.0 mi South 9.2 mph - N/A   Scattered Clouds
4:53 PM 63.0 °F 48.9 °F 60% 29.86 in 10.0 mi SSE 5.8 mph - N/A   Scattered Clouds
5:53 PM 62.1 °F 48.9 °F 62% 29.87 in 10.0 mi SSE 3.5 mph - N/A   Clear
6:53 PM 61.0 °F 50.0 °F 67% 29.89 in 10.0 mi SSE 4.6 mph - N/A   Clear
7:53 PM 61.0 °F 48.9 °F 64% 29.91 in 10.0 mi ESE 3.5 mph - N/A   Mostly Cloudy
8:53 PM 60.1 °F 48.0 °F 64% 29.92 in 10.0 mi Calm Calm - N/A   Partly Cloudy
9:53 PM 60.1 °F 48.0 °F 64% 29.93 in 10.0 mi SE 3.5 mph - N/A   Clear
10:53 PM 59.0 °F 48.9 °F 69% 29.94 in 10.0 mi Calm Calm - N/A   Scattered Clouds
11:53 PM 59.0 °F 48.9 °F 69% 29.94 in 10.0 mi Calm Calm - N/A   Mostly Cloudy